Location: Clanezzo
(45.7500°N, 9.6000°E)
Time: 09:42:58
(UTC+00:00)

CUTE-I - Pass Details

Date: 06 December 2023
Orbit: 807 x 822 km, 98.7° (Epoch: 23 February)

Event Time Altitude Azimuth Distance (km) Brightness Sun altitude
Rises 04:52:58 0° 23° (NNE) 3,362 ? -19.2°
Reaches altitude 10° 04:55:37 10° 34° (NE) 2,427 ? -18.7°
Maximum altitude 05:00:17 30° 95° (E) 1,451 ? -17.9°
Drops below altitude 10° 05:04:56 10° 155° (SSE) 2,416 ? -17.1°
Sets 05:07:33 0° 166° (SSE) 3,344 ? -16.7°
